Location: Jetmore Oil Field
(38.1181°N, 99.9337°W)
Time: 09:42:31
(UTC+00:00)

NOSS 3-1 (A) - Pass Details

Date: 17 February 2020
Orbit: 761 x 1452 km, 63.4° (Epoch: 26 March)

Event Time Altitude Azimuth Distance (km) Brightness Sun altitude
Rises 01:22:01 0° 178° (S) 3,218 6.3 -13.0°
Reaches altitude 10° 01:24:40 10° 165° (SSE) 2,329 5.4 -13.5°
Maximum altitude 01:29:00 26° 110° (ESE) 1,572 4.1 -14.4°
Enters shadow 01:30:55 22° 79° (E) 1,799 4.3 -14.8°
